User: anonymous   Login
Location: Unspecified
(0.0000°N, 0.0000°E)
Time: 03:09:28
(UTC+00:00)
Language:

PROBA 2 - Orbit

View from above orbital plane
View from above orbital plane
View from above satellite
View from above satellite

Ground track
Ground track

The orbit data is extracted from the following two-line orbital elements,

1 36037U 09059B   15090.52189046  .00000330  00000-0  91267-4 0  9997
2 36037 098.2784 284.6225 0012286 308.9084 103.7072 14.52810309286716
Epoch (UTC): 31 March 2015 12:31:31
Eccentricity: 0.0012286
inclination: 98.2784°
perigee height: 708 km
apogee height: 725 km
right ascension of ascending node: 284.6225°
argument of perigee: 308.9084°
revolutions per day: 14.52810309
mean anomaly at epoch: 103.7072°
orbit number at epoch: 28671

The dashed part of the orbit path shows where the satellite is in the earth's shadow,  

DLR